236  
ASUS43 KGLD 160208  
RWRGLD  
 
GOODLAND FORECAST AREA HOURLY WEATHER ROUNDUP  
NATIONAL WEATHER SERVICE GOODLAND KS  
800 PM MDT MON JUL 15 2024  
   
..OFFICIAL OBSERVATIONS
 
 
 
CITY SKY/WX TMP DP RH WIND PRES REMARKS
 
GOODLAND KS MOCLDY 85 63 47 NE9 29.95R  
HILL CITY KS CLEAR 90 32 12 NE14 29.85R  
IMPERIAL NEB CLOUDY 82 61 48 E3 29.97R  
MCCOOK NEB MOCLDY 80 32 17 N8 29.91R  
AKRON CO MOCLDY 75 56 51 S10 30.08S  
BURLINGTON CO CLOUDY 78 32 18 NW28G44 30.03  
LIMON CO MOCLDY 71 57 61 NE7 30.14R  

 
   
..UNOFFICIAL OBSERVATIONS
 
 
 
CITY SKY/WX TMP DP RH WIND PRES REMARKS
 
ATWOOD KS CLOUDY 86 57 37 NE10 29.97R  
COLBY KS PTCLDY 87 62 43 NE14 29.93R  
OAKLEY KS CLEAR 88 62 41 NE12 29.89R  
NORTON KS PTCLDY 81 64 57 NE5 29.90R  
OBERLIN KS MOCLDY 84 63 48 NE8 29.93S  
SHARON SPRINGS N/A 92 47 21 NE6 N/A  
ST FRANCIS KS CLOUDY 86 61 42 NE8 29.95R  
WRAY CO CLOUDY N/A N/A N/A NE7 29.98F  
YUMA CO CLOUDY 81 12 7 SW5 30.03R  

 
 
 
CLICK HERE TO GO TO PREVIOUS BULLETINS.

The Nexlab KS Page
The Nexlab CO Page
The Nexlab NE Page Main Text Page